Location: Newark
(12.4436°N, 0.6167°W)
Time: 19:08:21
(UTC+00:00)

Transit 2A - Pass Details

Date: 16 December 2019
Orbit: 601 x 958 km, 66.7° (Epoch: 28 January)

Event Time Altitude Azimuth Distance (km) Brightness Sun altitude
Rises 03:14:47 0° 164° (SSE) 3,336 9.7 -42.1°
Reaches altitude 10° 03:18:38 10° 138° (SE) 2,317 9.0 -41.2°
Maximum altitude 03:21:05 13° 110° (ESE) 2,036 8.8 -40.7°
Drops below altitude 10° 03:23:27 10° 81° (E) 2,205 8.9 -40.1°
Sets 03:26:54 0° 55° (NE) 3,045 9.5 -39.3°
